User: anonymous   Login
Location: Clatteringshaws Loch
(55.0508°N, 4.2860°W)
Time: 14:04:08
(UTC+00:00)
Language:

Sapphire - Orbit

View from above orbital plane
View from above orbital plane
View from above satellite
View from above satellite

Ground track
Ground track

The orbit data is extracted from the following two-line orbital elements,

1 26932U 01043D   17324.71639157 -.00000019 +00000-0 +24738-4 0  9995
2 26932 067.0576 049.8799 0005771 245.6460 114.4039 14.30265373842682
Epoch (UTC): 20 November 2017 17:11:36
Eccentricity: 0.0005771
inclination: 67.0576°
perigee height: 787 km
apogee height: 795 km
right ascension of ascending node: 49.8799°
argument of perigee: 245.6460°
revolutions per day: 14.30265373
mean anomaly at epoch: 114.4039°
orbit number at epoch: 84268

The dashed part of the orbit path shows where the satellite is in the earth's shadow,  

DLR